sat.trackr.live / text

‹ back to catalog

STARLINK-34677

NORAD 65031 · 2025-161S

PAYLOAD ACTIVE UNKNOWN

§ Identity

Operator
Country
US
Launch date
2025-07-30
Launch site
AFWTR
Launch vehicle
Mass (kg)
RCS (m²)

Purposes: comms

External: N2YO · Heavens-Above · Gunter

§ Orbital elements

Epoch: 2026-05-25T03:45:27.337824Z

Period
94.11 min
Inclination
53.1604°
Eccentricity
0.0001212
Mean motion
15.30204489 rev/d
Perigee alt
474.4 km
Apogee alt
476.0 km
Semi-major
6,853.3 km
B*
5.5056e-4
RAAN
299.2796°
Arg perigee
75.6937°
Mean anomaly
284.4198°
Rev number
4,593

§ Raw data

STARLINK-346771 65031U 25161S   26145.15656641  .00015984  00000+0  55056-3 0  99922 65031  53.1604 299.2796 0001212  75.6937 284.4198 15.30204489 45936

JSON: /api/v1/satellites/65031 · /tle

For live sub-satellite position, see the globe view (requires WebGL).

§ Visibility from observer

Set your observer location to see the next 7 days of passes ≥ 10°. The values pass through the URL so the page stays shareable.

No JS? Fill the form by hand. The geolocation button needs JavaScript.